Flag for USA

Past Weather in Columbus Historic District, Georgia, USA — Yesterday and Last 2 Weeks

Now
78 °F

Mostly cloudy.


Feels Like: 81 °F
Forecast: 86 / 71 °F
Wind: 3 mph from Southwest

Location: Columbus Metropolitan Airport

Current Time: Jul 20, 2019 at 12:09:18 pm

Latest Report: Jul 20, 2019 at 10:51 am


Visibility: 10 mi

Pressure: 30.09 "Hg

Humidity: 82%

Dew Point: 72 °F

Location of Columbus Historic DistrictLocation

Past Weather in Columbus Historic District — Graph

°F

Columbus Historic District Temperature Yesterday

Maximum temperature yesterday: 92 °F (at 1:38 pm)
Minimum temperature yesterday: 74 °F (at 6:51 am)
Average temperature yesterday: 78 °F

High & Low Weather Summary for the Past Weeks

 TemperatureHumidityPressure
High96 °F (Jul 16, 5:51 pm)100% (Jul 20, 5:11 am)30.18 "Hg (Jul 20, 5:11 am)
Low72 °F (Jul 15, 6:51 am)40% (Jul 17, 4:51 pm)29.80 "Hg (Jul 8, 6:51 pm)
Average82 °F74%30.01 "Hg
* Reported Jul 5 10:51 am — Jul 20 10:51 am, Columbus Historic District. Weather by CustomWeather, © 2019

Note: Actual official high and low records may vary slightly from our data, if they occured in-between our weather recording intervals... More about our weather records

Advertising

Columbus Historic District Weather History for the Previous 24 Hours

Scroll right to see more
 ConditionsComfort  
Time TempWeatherWind HumidityBarometerVisibility
10:51 am
Sat, Jul 20
78 °FMostly cloudy.3 mph82%30.09 "Hg10 mi
10:20 am77 °FMostly cloudy.5 mph85%30.11 "Hg10 mi
8:51 am75 °FLow clouds.7 mph88%30.10 "Hg9 mi
7:51 am73 °FLow clouds.3 mph94%30.09 "Hg10 mi
7:05 am73 °FPartly sunny.No wind94%30.09 "Hg10 mi
6:51 am73 °FLow clouds.3 mph94%30.07 "Hg10 mi
5:51 am73 °FFog.5 mph97%30.04 "Hg6 mi
5:11 am72 °FFog.No wind100%30.06 "Hg3 mi
4:51 am72 °FFog.3 mph97%30.04 "Hg1 mi
3:51 am73 °FFog.No wind97%30.03 "Hg1 mi
3:34 am73 °FFog.No wind97%30.05 "Hg0 mi
3:10 am73 °FFog.No wind97%30.05 "Hg2 mi
2:51 am73 °FFog.No wind97%30.03 "Hg6 mi
2:25 am73 °FFog.3 mph97%30.05 "Hg4 mi
2:00 am74 °FPassing clouds.5 mph94%30.05 "Hg8 mi
12:51 am75 °FClear.No wind90%30.04 "Hg10 mi
11:51 pm
Fri, Jul 19
75 °FPassing clouds.3 mph90%30.05 "Hg10 mi
11:41 pm75 °FPassing clouds.No wind90%30.08 "Hg10 mi
11:05 pm75 °FPassing clouds.5 mph90%30.09 "Hg10 mi
10:58 pm75 °FPartly cloudy.No wind90%30.09 "Hg10 mi
10:38 pm75 °FPassing clouds.No wind90%30.09 "Hg10 mi
10:15 pm75 °FPassing clouds.No wind90%30.10 "Hg10 mi
9:51 pm75 °FClear.No wind90%30.09 "Hg10 mi
8:51 pm76 °FPassing clouds.6 mph88%30.08 "Hg10 mi
7:51 pm76 °FScattered clouds.8 mph91%30.08 "Hg10 mi
6:51 pm77 °FPassing clouds.5 mph88%30.06 "Hg10 mi
5:51 pm78 °FScattered clouds.No wind84%30.03 "Hg10 mi
4:51 pm77 °FLight rain. Partly sunny.No wind88%30.06 "Hg8 mi
3:51 pm75 °FLight rain. Fog.12 mph88%30.09 "Hg5 mi
3:34 pm75 °FHeavy rain. Fog.13 mph90%30.11 "Hg1 mi
3:06 pm75 °FThunderstorms. Fog.8 mph90%30.13 "Hg1 mi
2:59 pm76 °FStrong thunderstorms. Fog.10 mph88%30.12 "Hg1 mi
2:27 pm78 °FStrong thunderstorms. Overcast.13 mph84%30.10 "Hg0 mi
2:20 pm82 °FThunderstorms. Overcast.18 mph82%30.08 "Hg2 mi
1:51 pm91 °FThunderstorms. Partly sunny.N/A52%30.05 "Hg10 mi
1:38 pm92 °FThunderstorms. Partly sunny.3 mph52%30.06 "Hg10 mi
12:51 pm90 °FSunny.No wind57%30.07 "Hg10 mi
Weather by CustomWeather, © 2019

See weather overview